Regional Weather Roundup
Issued by NWS

Home | Current Version | Previous Version | Text Only | Print | Product List | Glossary On
Versions: 1 2 3 4 5 6 7 8 9 10 11 12 13 14 15 16 17 18 19 20 21 22 23 24 25 26 27 28 29 30 31 32 33 34 35 36 37 38 39 40 41 42 43 44 45 46 47 48 49 50
000
ASUS45 KABQ 241010
RWRNM
NEW MEXICO REGIONAL WEATHER ROUNDUP
NATIONAL WEATHER SERVICE ALBUQUERQUE NM
400 AM MDT SAT JUN 24 2017

NOTE: "FAIR" MEANS FEW OR NO CLOUDS BELOW 12,000 FEET AGL WITH NO
       SIGNIFICANT WEATHER OR OBSTRUCTIONS TO VISION.

      THIS PRODUCT IS RELEASED AS TWO VERSIONS.  ONE VERSION NEAR
      THE TOP OF THE HOUR CONTAINING PRELIMINARY DATA FROM ALBUQUERQUE
      AND OTHER STATIONS.  A FINAL VERSION WITH ADDITIONAL DATA IS
      ISSUED ABOUT 10 MINUTES AFTER THE HOUR.

NMZ501-503-504-510>518-241100-
NORTHWEST PLATEAU/NORTHCENTRAL MOUNTAINS

CITY           SKY/WX    TMP DP  RH WIND       PRES   REMARKS
FARMINGTON     FAIR      64  37  36 E9        30.14S
LOS ALAMOS     CLOUDY    63  50  63 S13       30.35S
SANTA FE       FAIR      64  52  64 SE13      30.28F
TAOS           FAIR      55  41  58 SE7       30.34
ANGEL FIRE     FAIR      47  44  87 CALM      30.43F

$$
NMZ402-403-502-505>509-241100-
WESTCENTRAL MOUNTAINS/SOUTHWEST MOUNTAINS

CITY           SKY/WX    TMP DP  RH WIND       PRES   REMARKS
GALLUP         FAIR      60  27  28 CALM      30.24R
GRANTS         FAIR      66  52  61 S16       30.27S
SILVER CITY    FAIR      74  56  53 E9        30.14S

$$
NMZ407-409-411-412-241100-
SOUTHERN DESERTS

CITY           SKY/WX    TMP DP  RH WIND       PRES   REMARKS
DEMING         FAIR      78  57  48 E10       30.06R
LAS CRUCES     FAIR      79  51  37 CALM      30.07S
HOLLOMAN AFB   FAIR      81  56  42 E7        30.07S
ALAMOGORDO     FAIR      77  55  47 NW3       30.07S
T OR C         FAIR      77  57  50 N13       30.12S

$$
NMZ519>523-241100-
CENTRAL VALLEYS/CENTRAL HIGHLANDS

CITY           SKY/WX    TMP DP  RH WIND       PRES   REMARKS
ALBUQUERQUE    FAIR      69  52  54 E22G31    30.20R
MORIARTY ARPT  CLOUDY    64  51  61 E8        30.34R
CLINES CORNERS CLOUDY    57  47  69 E17       30.37S
BELEN          FAIR      74  55  52 SE15      30.18F
SOCORRO        FAIR      74  58  56 S5        30.17S

$$
NMZ524>526-539-540-241100-
SOUTHCENTRAL MOUNTAINS

CITY           SKY/WX    TMP DP  RH WIND       PRES   REMARKS
RUIDOSO        NOT AVBL

$$
NMZ527>531-241100-
NORTHEAST HIGHLANDS/NORTHEAST PLAINS

CITY           SKY/WX    TMP DP  RH WIND       PRES   REMARKS
LAS VEGAS      CLOUDY    57  47  69 E7        30.37F
RATON          CLOUDY    54  46  74 SW6       30.34F
CLAYTON        CLOUDY    58  48  69 E3        30.30S

$$
NMZ532>537-241100-
EASTCENTRAL PLAINS

CITY           SKY/WX    TMP DP  RH WIND       PRES   REMARKS
SANTA ROSA     CLOUDY    64  48  56 NE7       30.26S
TUCUMCARI      CLOUDY    66  49  54 NE10      30.23F
CANNON AFB     CLOUDY    63  48  59 NE22G28   30.23S
CLOVIS AIRPORT CLOUDY    63  49  60 NE18G24   30.22F

$$
NMZ028-029-538-241100-
SOUTHEAST PLAINS

CITY           SKY/WX    TMP DP  RH WIND       PRES   REMARKS
ROSWELL        FAIR      72  53  51 N12       30.13S
ARTESIA        FAIR      72  54  53 NE14      30.10F
CARLSBAD       FAIR      73  56  54 N5        30.06F
HOBBS          FAIR      66  54  63 NE14      30.12R


$$




USA.gov is the U.S. government's official web portal to all federal, state and local government web resources and services.